Showing default

GOES 1 (SMS-C), 8366

Orbit data source: Space-Track

GOES 1 (SMS-C), 8366 is a payload satellite owned by NOAA (US) in GEO that was launched on Thu, 16 Oct 1975 UTC via a DELTA 2914 launch vehicle from the Air Force Eastern Test Range (AFETR). Payloads include a variety of satellites, spacecraft, and rockets equipped with specific instruments for various scientific and technological missions. These include communications satellites like Starlink; space stations such as the ISS; scientific satellites like the Hubble; Earth observation satellites from companies like Planet Labs, Umbra, and HawkEye 360; GPS; miniature CubeSats for education and research; and military/defense satellites.

Loading next visibility...
GOES 1 (SMS-C) details
Identifier
8366, 1975-100A
Orbit
GEO
Last TLE update11 hours ago
Origin
Flag of USNOAA (US)
ManufacturerAe Ford WDL
MissionNon-operational Civil Weather
Bus & MotorSMS, SVM-5
Mass~612 kg wet, ~277 kg dry
Launch date (UTC)
1975-10-16 (49 years ago)
Launch vehicle
DELTA 2914
Launch site
Air Force Eastern Test Range (AFETR)
Object type
Payload
Rocket body
Debris
Shape & HBRCyl, 2.6 m
Radar Cross Section5.298 m², Large (>1 m²)

Expand to show TLE details & history

TLE from 11 hours ago
0 GOES 1 (SMS-C)
1  8366U 75100A   24348.49735802 -.00000189  00000-0  00000+0 0  9993
2  8366   6.0121 284.3053 0005053 327.2983 284.3836  1.00298931179685
Epoch: 2024-12-13T11:56Z
Definitive object data (Epoch: 2024-12-13T11:56:11.732Z)
Latitude-5.72389°
Longitude-85.90375°
Altitude35,774.159 km
Speed3.075 km/s
True Right ascension11h 43m 13s
True Declination-5° 43' 05"
Sunlit
Object was in daylight at TLE epoch
Visualization TLE readout
Latitude5.08609°
Longitude80.04505°
Altitude35,778.094 km
Speed3.075 km/s
Apparent Right ascension22h 56m 57s
Apparent Declination0° 31' 00"
Sunlit
Object is in daylight
Visualization observer readout
Local Sidereal Time21:29:43
Azimuth148.348° SSE
Elevation44.932°
Doppler factor1
Orbital elements
Apogee altitude35,801.343 km
Perigee altitude35,758.738 km
Semi-major axis42,158.177 km
Eccentricity0.0005053
Inclination6.0121°
RAAN284.3053°
Arg. of periapsis327.2983°
True anomaly284.3275°
Mean anomaly284.3836°
Eccentric anomaly284.35555°
Mean motion0.25074 °/min
BSTARUnknown
Orbital period1435.76 mins
Loading historical data...
8366 neighbors
Authenticating...
Loading maneuver chart data...
Loading historical data...
Loading historical data...
Loading historical data...
Loading historical data...
Loading historical data...
Loading historical data...
Loading historical data...

GOES 1 (SMS-C) Visibility forecast

Observer location: undefined°, undefined

Span
Click to sort rows by Start time (UTC) header in descending order
Start Az.
Max El. time (UTC)
Max El. Az.
Max El.
End time (UTC)
End Az.
1440 mins2024-12-13 22:57:44.217Z148.36° SSE2024-12-14 01:07:44.217Z147.524° SSE35.649°2024-12-14 22:57:44.217Z148.173° SSE
|